When you browse on this site, cookies collect data to enhance your experience and personalize the content and advertising you see.
Visit our Privacy Policy to learn more. By continuing to use the site, you agree to this use of cookies and data.
  • în România
  • Lista ţărilor
  • Pe 7 zile
  • Temperatura apei
  • Hartă satelitară
  • Meteo pe hartă
  • Widget-uri
  • user-avatar
    Intrare

    Meteo pe oră la Satu Mare

    Astăzi, 19 Noiembrie, Luni

    Timp Temperatura Precipitaţii Vânt Presiune Umiditate
    00:00 +1°C° 0 mm 2 m/s 752 mmHg 73%
    01:00 +2°C° 0 mm 2 m/s 752 mmHg 72%
    02:00 +2°C° 0 mm 2 m/s 752 mmHg 73%
    03:00 +2°C° 0.1 mm 2 m/s 751 mmHg 72%
    04:00 +2°C° 0.1 mm 2 m/s 751 mmHg 72%
    05:00 +2°C° 0.1 mm 2 m/s 751 mmHg 71%
    06:00 +2°C° 0.2 mm 2 m/s 751 mmHg 73%
    07:00 +2°C° 0.2 mm 2 m/s 751 mmHg 74%
    08:00 +2°C° 0.2 mm 2 m/s 751 mmHg 75%
    09:00 +3°C° 0.1 mm 2 m/s 751 mmHg 72%
    10:00 +4°C° 0.1 mm 2 m/s 751 mmHg 70%
    11:00 +5°C° 0.1 mm 2 m/s 751 mmHg 68%
    12:00 +5°C° 0.1 mm 2 m/s 751 mmHg 67%
    13:00 +5°C° 0.1 mm 2 m/s 751 mmHg 66%
    14:00 +6°C° 0.1 mm 2 m/s 752 mmHg 66%
    15:00 +5°C° 0 mm 2 m/s 752 mmHg 69%
    16:00 +6°C° 0 mm 1 m/s 752 mmHg 72%
    17:00 +5°C° 0 mm 1 m/s 752 mmHg 76%
    18:00 +5°C° 0 mm 1 m/s 753 mmHg 77%
    19:00 +5°C° 0 mm 1 m/s 753 mmHg 79%
    20:00 +3°C° 0 mm 2 m/s 753 mmHg 80%
    21:00 +3°C° 0 mm 2 m/s 753 mmHg 81%
    22:00 +2°C° 0 mm 2 m/s 754 mmHg 82%
    23:00 +2°C° 0 mm 2 m/s 754 mmHg 83%

    Mâine, 20 Noiembrie, Marţi

    Timp Temperatura Precipitaţii Vânt Presiune Umiditate
    00:00 +2°C° 0 mm 2 m/s 754 mmHg 81%
    01:00 +1°C° 0 mm 3 m/s 754 mmHg 80%
    02:00 +1°C° 0 mm 3 m/s 754 mmHg 79%
    03:00 +1°C° 0 mm 3 m/s 754 mmHg 78%
    04:00 +1°C° 0 mm 3 m/s 754 mmHg 77%
    05:00 +1°C° 0 mm 3 m/s 753 mmHg 76%
    06:00 +1°C° 0 mm 3 m/s 753 mmHg 75%
    07:00 0°C° 0 mm 4 m/s 753 mmHg 74%
    08:00 0°C° 0 mm 4 m/s 753 mmHg 73%
    09:00 +3°C° 0 mm 4 m/s 753 mmHg 69%
    10:00 +4°C° 0 mm 4 m/s 752 mmHg 65%
    11:00 +5°C° 0 mm 5 m/s 752 mmHg 61%
    12:00 +5°C° 0.2 mm 4 m/s 752 mmHg 62%
    13:00 +6°C° 0.2 mm 4 m/s 751 mmHg 62%
    14:00 +6°C° 0.2 mm 4 m/s 751 mmHg 63%
    15:00 +6°C° 0.2 mm 4 m/s 751 mmHg 66%
    16:00 +5°C° 0.2 mm 3 m/s 751 mmHg 69%
    17:00 +5°C° 0.2 mm 3 m/s 751 mmHg 73%
    18:00 +5°C° 0.2 mm 3 m/s 751 mmHg 73%
    19:00 +5°C° 0.2 mm 3 m/s 751 mmHg 74%
    20:00 +5°C° 0.2 mm 3 m/s 751 mmHg 75%
    21:00 +5°C° 0.3 mm 3 m/s 751 mmHg 75%
    22:00 +5°C° 0.3 mm 3 m/s 751 mmHg 76%
    23:00 +5°C° 0.3 mm 3 m/s 751 mmHg 76%

    Poimâine, 21 Noiembrie, Miercuri

    Timp Temperatura Precipitaţii Vânt Presiune Umiditate
    00:00 +5°C° 0.1 mm 3 m/s 751 mmHg 76%
    01:00 +5°C° 0.1 mm 3 m/s 751 mmHg 75%
    02:00 +5°C° 0.1 mm 3 m/s 751 mmHg 74%
    03:00 +4°C° 0 mm 3 m/s 751 mmHg 74%
    04:00 +4°C° 0 mm 3 m/s 751 mmHg 74%
    05:00 +5°C° 0 mm 2 m/s 751 mmHg 74%
    06:00 +5°C° 0 mm 2 m/s 751 mmHg 75%
    07:00 +4°C° 0 mm 3 m/s 751 mmHg 75%
    08:00 +3°C° 0 mm 3 m/s 751 mmHg 76%
    09:00 +5°C° 0 mm 3 m/s 751 mmHg 72%
    10:00 +7°C° 0 mm 3 m/s 752 mmHg 67%
    11:00 +8°C° 0 mm 3 m/s 752 mmHg 62%
    12:00 +9°C° 0 mm 3 m/s 752 mmHg 61%
    13:00 +9°C° 0 mm 3 m/s 752 mmHg 60%
    14:00 +10°C° 0 mm 3 m/s 752 mmHg 59%
    15:00 +9°C° 0 mm 3 m/s 752 mmHg 63%
    16:00 +8°C° 0 mm 2 m/s 753 mmHg 67%
    17:00 +7°C° 0 mm 2 m/s 753 mmHg 71%
    18:00 +7°C° 0 mm 2 m/s 753 mmHg 73%
    19:00 +6°C° 0 mm 2 m/s 754 mmHg 74%
    20:00 +6°C° 0 mm 2 m/s 754 mmHg 75%
    21:00 +6°C° 0 mm 2 m/s 754 mmHg 75%
    22:00 +6°C° 0 mm 2 m/s 754 mmHg 75%
    23:00 +6°C° 0 mm 2 m/s 755 mmHg 75%

    22 Noiembrie, Joi

    Timp Temperatura Precipitaţii Vânt Presiune Umiditate
    00:00 +6°C° 0 mm 2 m/s 755 mmHg 75%
    01:00 +6°C° 0 mm 2 m/s 755 mmHg 75%
    02:00 +6°C° 0 mm 2 m/s 755 mmHg 75%
    03:00 +6°C° 0 mm 2 m/s 755 mmHg 75%
    04:00 +6°C° 0 mm 2 m/s 756 mmHg 75%
    05:00 +6°C° 0 mm 2 m/s 756 mmHg 75%
    06:00 +5°C° 0 mm 2 m/s 756 mmHg 76%
    07:00 +5°C° 0 mm 2 m/s 756 mmHg 76%
    08:00 +5°C° 0 mm 2 m/s 756 mmHg 76%
    09:00 +6°C° 0 mm 2 m/s 756 mmHg 71%
    10:00 +7°C° 0 mm 2 m/s 757 mmHg 67%
    11:00 +8°C° 0 mm 2 m/s 757 mmHg 62%
    12:00 +10°C° 0 mm 1 m/s 757 mmHg 61%
    13:00 +10°C° 0 mm 1 m/s 757 mmHg 59%
    14:00 +11°C° 0 mm 1 m/s 757 mmHg 57%
    15:00 +10°C° 0 mm 1 m/s 757 mmHg 61%
    16:00 +9°C° 0 mm 1 m/s 757 mmHg 65%
    17:00 +8°C° 0 mm 1 m/s 757 mmHg 68%
    18:00 +8°C° 0 mm 1 m/s 758 mmHg 71%
    19:00 +7°C° 0 mm 1 m/s 758 mmHg 73%
    20:00 +7°C° 0 mm 1 m/s 758 mmHg 75%
    21:00 +6°C° 0 mm 1 m/s 758 mmHg 75%
    22:00 +6°C° 0 mm 1 m/s 759 mmHg 76%
    23:00 +6°C° 0 mm 1 m/s 759 mmHg 76%

    23 Noiembrie, Vineri

    Timp Temperatura Precipitaţii Vânt Presiune Umiditate
    00:00 +5°C° 0 mm 1 m/s 759 mmHg 77%
    01:00 +5°C° 0 mm 1 m/s 759 mmHg 77%
    02:00 +5°C° 0 mm 1 m/s 760 mmHg 77%
    03:00 +5°C° 0 mm 1 m/s 760 mmHg 78%
    04:00 +4°C° 0 mm 1 m/s 760 mmHg 78%
    05:00 +4°C° 0 mm 1 m/s 760 mmHg 78%
    06:00 +4°C° 0 mm 1 m/s 760 mmHg 78%
    07:00 +4°C° 0 mm 1 m/s 761 mmHg 78%
    08:00 +3°C° 0 mm 1 m/s 761 mmHg 79%
    09:00 +5°C° 0 mm 1 m/s 761 mmHg 73%
    10:00 +6°C° 0 mm 1 m/s 761 mmHg 67%
    11:00 +8°C° 0 mm 1 m/s 762 mmHg 61%
    12:00 +9°C° 0 mm 1 m/s 762 mmHg 59%
    13:00 +9°C° 0 mm 1 m/s 761 mmHg 57%
    14:00 +10°C° 0 mm 1 m/s 761 mmHg 54%
    15:00 +9°C° 0 mm 1 m/s 761 mmHg 60%
    16:00 +8°C° 0 mm 1 m/s 762 mmHg 65%
    17:00 +7°C° 0 mm 1 m/s 762 mmHg 70%
    18:00 +6°C° 0 mm 1 m/s 762 mmHg 71%
    19:00 +6°C° 0 mm 1 m/s 762 mmHg 72%
    20:00 +5°C° 0 mm 1 m/s 762 mmHg 73%
    21:00 +5°C° 0 mm 1 m/s 763 mmHg 73%
    22:00 +5°C° 0 mm 1 m/s 763 mmHg 73%
    23:00 +4°C° 0 mm 1 m/s 763 mmHg 73%

    24 Noiembrie, Sâmbătă

    Timp Temperatura Precipitaţii Vânt Presiune Umiditate
    00:00 +4°C° 0 mm 1 m/s 763 mmHg 73%
    01:00 +4°C° 0 mm 1 m/s 763 mmHg 73%
    02:00 +3°C° 0 mm 1 m/s 762 mmHg 72%
    03:00 +3°C° 0 mm 1 m/s 762 mmHg 72%
    04:00 +3°C° 0 mm 1 m/s 762 mmHg 72%
    05:00 +3°C° 0 mm 1 m/s 762 mmHg 71%
    06:00 +2°C° 0 mm 1 m/s 762 mmHg 71%
    07:00 +2°C° 0 mm 1 m/s 762 mmHg 71%
    08:00 +2°C° 0 mm 1 m/s 762 mmHg 71%
    09:00 +4°C° 0 mm 1 m/s 762 mmHg 65%
    10:00 +5°C° 0 mm 1 m/s 761 mmHg 60%
    11:00 +7°C° 0 mm 1 m/s 761 mmHg 54%
    12:00 +8°C° 0 mm 1 m/s 761 mmHg 52%
    13:00 +8°C° 0 mm 1 m/s 760 mmHg 50%
    14:00 +9°C° 0 mm 1 m/s 760 mmHg 48%
    15:00 +8°C° 0 mm 1 m/s 760 mmHg 51%
    16:00 +7°C° 0 mm 1 m/s 759 mmHg 55%
    17:00 +6°C° 0 mm 1 m/s 759 mmHg 58%
    18:00 +5°C° 0 mm 1 m/s 759 mmHg 58%
    19:00 +4°C° 0 mm 2 m/s 759 mmHg 57%
    20:00 +3°C° 0 mm 2 m/s 759 mmHg 57%
    21:00 +3°C° 0 mm 2 m/s 759 mmHg 58%
    22:00 +3°C° 0 mm 2 m/s 758 mmHg 58%
    23:00 +3°C° 0 mm 2 m/s 758 mmHg 58%
    Arată mai mult